Weather History for Wadesboro, NC

Change the Weather History Date:

Monday, January 16, 2012

  Actual Average (KCLT) Record (KCLT)
Temperature  
Mean Temperature 36 °F 40 °F  
Max Temperature 50 °F 50 °F 74 °F (1974)
Min Temperature 23 °F 29 °F 5 °F (1893)
Degree Days  
Heating Degree Days 28 25  
Month to date heating degree days 400  
Since 1 July heating degree days 1737  
Cooling Degree Days 0 0  
Month to date cooling degree days 0  
Year to date cooling degree days 0  
Moisture  
Dew Point 26 °F    
Average Humidity 71    
Maximum Humidity 93    
Minimum Humidity 43    
Precipitation  
Precipitation 0.00 in 0.11 in 1.69 in (1954)
Month to date precipitation 1.80  
Year to date precipitation 1.80  
Snow  
Snow 0.00 in 0.10 in 10.00 in (1965)
Month to date snowfall 1.0  
Since 1 July snowfall 1.4  
Snow Depth -    
Sea Level Pressure  
Sea Level Pressure 30.52 in    
Wind  
Wind Speed 1 mph (SSE)    
Max Wind Speed 10 mph    
Max Gust Speed -    
Visibility 10 miles    
Events      
T = Trace of Precipitation, MM = Missing Value Source: NWS Daily Summary

Daily Weather History Graph

Daily Weather History Graph

Search for Another Location

Airport:

Trip Planner

Search our weather history database for the weather conditions in past years. The results will help you decide how hot, cold, wet, or windy it might be!

Date:

Astronomy

Jan. 16, 2012 Rise Set
Actual Time 7:27 AM EST 5:32 PM EST
Civil Twilight 7:00 AM EST 5:59 PM EST
Nautical Twilight 6:29 AM EST 6:31 PM EST
Astronomical Twilight 5:58 AM EST 7:01 PM EST
Moon 12:39 AM EST (1/16) 11:41 AM EST (1/16)
Length of Visible Light 10h 59m
Length of Day
10h 04m
Waning Gibbous, 46% of the Moon is Illuminated
Jan 16
Waning Gibbous
Jan 23
New
Jan 30
First Quarter
Feb 7
Full
Feb 14
Last Quarter

Hourly Weather History & Observations

Time (EST) Temp. Windchill Dew Point Humidity Pressure Visibility Wind Dir Wind Speed Gust Speed Precip Events Conditions
12:35 AM 26.6 °F - 23.0 °F 86% 30.54 in 10.0 mi Calm Calm - N/A   Clear
12:55 AM 26.6 °F - 23.0 °F 86% 30.55 in 10.0 mi Calm Calm - N/A   Clear
1:15 AM 26.6 °F - 23.0 °F 86% 30.54 in 10.0 mi Calm Calm - N/A   Clear
1:35 AM 26.6 °F - 21.2 °F 80% 30.54 in 10.0 mi Calm Calm - N/A   Clear
1:55 AM 26.6 °F - 23.0 °F 86% 30.54 in 10.0 mi Calm Calm - N/A   Clear
2:15 AM 24.8 °F - 21.2 °F 86% 30.54 in 10.0 mi Calm Calm - N/A   Clear
2:35 AM 24.8 °F - 21.2 °F 86% 30.54 in 10.0 mi Calm Calm - N/A   Clear
2:55 AM 24.8 °F - 21.2 °F 86% 30.53 in 10.0 mi Calm Calm - N/A   Clear
3:15 AM 24.8 °F - 23.0 °F 93% 30.54 in 10.0 mi Calm Calm - N/A   Clear
3:35 AM 24.8 °F - 21.2 °F 86% 30.54 in 10.0 mi Calm Calm - N/A   Clear
3:55 AM 26.6 °F - 23.0 °F 86% 30.54 in 10.0 mi Calm Calm - N/A   Clear
4:15 AM 26.6 °F - 23.0 °F 86% 30.54 in 10.0 mi Calm Calm - N/A   Clear
4:35 AM 26.6 °F - 23.0 °F 86% 30.55 in 10.0 mi Calm Calm - N/A   Clear
4:55 AM 26.6 °F - 23.0 °F 86% 30.56 in 10.0 mi Calm Calm - N/A   Clear
5:15 AM 24.8 °F - 21.2 °F 86% 30.56 in 10.0 mi Calm Calm - N/A   Clear
5:35 AM 23.0 °F - 21.2 °F 93% 30.56 in 10.0 mi Calm Calm - N/A   Clear
5:55 AM 24.8 °F - 21.2 °F 86% 30.56 in 10.0 mi Calm Calm - N/A   Clear
6:15 AM 23.0 °F - 21.2 °F 93% 30.57 in 10.0 mi Calm Calm - N/A   Clear
6:35 AM 23.0 °F - 19.4 °F 86% 30.58 in 10.0 mi Calm Calm - N/A   Clear
6:55 AM 23.0 °F - 21.2 °F 93% 30.57 in 10.0 mi Calm Calm - N/A   Clear
7:15 AM 24.8 °F - 21.2 °F 86% 30.57 in 10.0 mi Calm Calm - N/A   Clear
7:35 AM 23.0 °F - 21.2 °F 93% 30.58 in 10.0 mi Calm Calm - N/A   Clear
7:55 AM 26.6 °F - 23.0 °F 86% 30.58 in 10.0 mi Calm Calm - N/A   Clear
8:15 AM 26.6 °F - 23.0 °F 86% 30.60 in 10.0 mi Calm Calm - N/A   Clear
8:35 AM 28.4 °F - 26.6 °F 93% 30.60 in 10.0 mi Calm Calm - N/A   Clear
8:55 AM 28.4 °F - 24.8 °F 86% 30.59 in 10.0 mi Calm Calm - N/A   Clear
9:15 AM 28.4 °F - 24.8 °F 86% 30.58 in 10.0 mi Calm Calm - N/A   Clear
9:35 AM 30.2 °F - 26.6 °F 86% 30.58 in 10.0 mi Calm Calm - N/A   Clear
9:55 AM 32.0 °F - 28.4 °F 87% 30.59 in 10.0 mi Calm Calm - N/A   Clear
10:15 AM 35.6 °F 32.8 °F 30.2 °F 81% 30.59 in 10.0 mi SE 3.5 mph - N/A   Clear
10:35 AM 41.0 °F 34.7 °F 26.6 °F 57% 30.58 in 10.0 mi SE 10.4 mph - N/A   Clear
10:55 AM 41.0 °F 35.2 °F 26.6 °F 57% 30.57 in 10.0 mi SE 9.2 mph - N/A   Clear
11:15 AM 42.8 °F 39.3 °F 26.6 °F 53% 30.58 in 10.0 mi SSE 5.8 mph - N/A   Clear
11:35 AM 44.6 °F 41.4 °F 28.4 °F 53% 30.56 in 10.0 mi SSE 5.8 mph - N/A   Clear
11:55 AM 44.6 °F 40.2 °F 28.4 °F 53% 30.55 in 10.0 mi South 8.1 mph - N/A   Clear
12:15 PM 44.6 °F 41.4 °F 28.4 °F 53% 30.54 in 10.0 mi South 5.8 mph - N/A   Clear
12:35 PM 46.4 °F 45.2 °F 30.2 °F 53% 30.53 in 10.0 mi SSW 3.5 mph - N/A   Clear
12:55 PM 48.2 °F - 30.2 °F 50% 30.51 in 10.0 mi South 6.9 mph - N/A   Clear
1:15 PM 48.2 °F - 30.2 °F 50% 30.50 in 10.0 mi South 3.5 mph - N/A   Clear
1:35 PM 48.2 °F - 30.2 °F 50% 30.49 in 10.0 mi South 4.6 mph - N/A   Clear
2:15 PM 50.0 °F - 30.2 °F 47% 30.47 in 10.0 mi SSE 10.4 mph - N/A   Clear
2:35 PM 50.0 °F - 30.2 °F 47% 30.47 in 10.0 mi South 6.9 mph - N/A   Scattered Clouds
2:55 PM 50.0 °F - 30.2 °F 47% 30.45 in 10.0 mi South 9.2 mph - N/A   Mostly Cloudy
3:15 PM 50.0 °F - 30.2 °F 47% 30.45 in 10.0 mi SSW 5.8 mph - N/A   Mostly Cloudy
3:35 PM 50.0 °F - 30.2 °F 47% 30.44 in 10.0 mi South 8.1 mph - N/A   Scattered Clouds
3:55 PM 50.0 °F - 28.4 °F 43% 30.44 in 10.0 mi South 4.6 mph - N/A   Scattered Clouds
4:15 PM 50.0 °F - 28.4 °F 43% 30.44 in 10.0 mi South 4.6 mph - N/A   Scattered Clouds
4:35 PM 50.0 °F - 28.4 °F 43% 30.45 in 10.0 mi South 4.6 mph - N/A   Mostly Cloudy
4:55 PM 48.2 °F - 28.4 °F 46% 30.44 in 10.0 mi Calm Calm - N/A   Overcast
5:15 PM 46.4 °F - 30.2 °F 53% 30.43 in 10.0 mi Calm Calm - N/A   Mostly Cloudy
5:35 PM 46.4 °F - 30.2 °F 53% 30.44 in 10.0 mi Calm Calm - N/A   Scattered Clouds
5:55 PM 44.6 °F 42.2 °F 32.0 °F 61% 30.41 in 10.0 mi ESE 4.6 mph - N/A   Mostly Cloudy
6:15 PM 46.4 °F 43.5 °F 32.0 °F 57% 30.39 in 10.0 mi ESE 5.8 mph - N/A   Mostly Cloudy
6:35 PM 46.4 °F - 32.0 °F 57% 30.41 in 10.0 mi Calm Calm - N/A   Mostly Cloudy
6:55 PM 46.4 °F - 32.0 °F 57% 30.41 in 10.0 mi Calm Calm - N/A   Overcast
7:15 PM 44.6 °F - 32.0 °F 61% 30.40 in 10.0 mi Calm Calm - N/A   Mostly Cloudy
7:35 PM 44.6 °F - 32.0 °F 61% 30.40 in 10.0 mi Calm Calm - N/A   Overcast
7:55 PM 46.4 °F - 32.0 °F 57% 30.40 in 10.0 mi Calm Calm - N/A   Overcast
8:15 PM 44.6 °F - 32.0 °F 61% 30.39 in 10.0 mi Calm Calm - N/A   Overcast
8:35 PM 44.6 °F - 32.0 °F 61% 30.40 in 10.0 mi Calm Calm - N/A   Overcast
8:55 PM 42.8 °F - 32.0 °F 66% 30.40 in 10.0 mi Calm Calm - N/A   Mostly Cloudy
9:15 PM 41.0 °F - 33.8 °F 76% 30.39 in 10.0 mi Calm Calm - N/A   Mostly Cloudy
9:55 PM 41.0 °F - 32.0 °F 70% 30.37 in 10.0 mi Calm Calm - N/A   Scattered Clouds
10:15 PM 42.8 °F - 32.0 °F 66% 30.38 in 10.0 mi Calm Calm - N/A   Scattered Clouds
10:35 PM 41.0 °F - 32.0 °F 70% 30.38 in 10.0 mi Calm Calm - N/A   Scattered Clouds
10:55 PM 41.0 °F 39.0 °F 33.8 °F 76% 30.38 in 10.0 mi SSW 3.5 mph - N/A   Scattered Clouds
11:35 PM 39.2 °F - 33.8 °F 81% 30.36 in 10.0 mi Calm Calm - N/A   Overcast
11:55 PM 41.0 °F - 33.8 °F 76% 30.36 in 10.0 mi Calm Calm - N/A   Overcast